Weather History for Mount Pleasant, MI

Change the Weather History Date:

Tuesday, November 20, 2012

  Actual Average (KAMN) Record (KAMN)
Temperature  
Mean Temperature 41 °F -  
Max Temperature 52 °F 45 °F 69 °F (1953)
Min Temperature 31 °F 28 °F 12 °F (1986)
Degree Days  
Heating Degree Days 24    
Moisture  
Dew Point 37 °F    
Average Humidity 83    
Maximum Humidity 98    
Minimum Humidity 64    
Precipitation  
Precipitation 0.00 in - - ()
Sea Level Pressure  
Sea Level Pressure 30.11 in    
Wind  
Wind Speed 0 mph (NNE)    
Max Wind Speed 4 mph    
Max Gust Speed -    
Visibility 5 miles    
Events Fog    
Averages and records for this station are not official NWS values.
T = Trace of Precipitation, MM = Missing Value Source: NWS Daily Summary

Daily Weather History Graph

Daily Weather History Graph

Search for Another Location

Airport:

Trip Planner

Search our weather history database for the weather conditions in past years. The results will help you decide how hot, cold, wet, or windy it might be!

Date:

Astronomy

Nov. 20, 2012 Rise Set
Actual Time 7:39 AM EST 5:09 PM EST
Civil Twilight 7:08 AM EST 5:40 PM EST
Nautical Twilight 6:33 AM EST 6:15 PM EST
Astronomical Twilight 5:59 AM EST 6:49 PM EST
Moon 1:07 PM EST (11/20) No Moon Set
Length of Visible Light 10h 31m
Length of Day
9h 29m
Waxing Crescent, 51% of the Moon is Illuminated
Nov 20
Waxing Crescent
Nov 28
Full
Dec 6
Last Quarter
Dec 13
New
Dec 20
First Quarter

Hourly Weather History & Observations

Time (EST) Temp. Windchill Dew Point Humidity Pressure Visibility Wind Dir Wind Speed Gust Speed Precip Events Conditions
12:15 AM 32.9 °F - 32.0 °F 96% 30.15 in 0.2 mi Calm Calm - N/A Fog Fog
12:35 AM 32.0 °F - 31.3 °F 97% 30.15 in 0.2 mi Calm Calm - N/A Fog Fog
12:55 AM 32.0 °F - 31.1 °F 96% 30.14 in 0.2 mi Calm Calm - N/A Fog Fog
1:15 AM 32.2 °F - 31.1 °F 96% 30.14 in 1.0 mi Calm Calm - N/A   Mostly Cloudy
1:35 AM 32.0 °F - 30.9 °F 96% 30.13 in 0.5 mi Calm Calm - N/A Fog Fog
1:55 AM 31.1 °F - 30.2 °F 96% 30.12 in 0.5 mi Calm Calm - N/A Fog Light Freezing Fog
2:15 AM 31.6 °F - 30.4 °F 95% 30.12 in 0.8 mi Calm Calm - N/A   Mist
2:35 AM 31.8 °F - 30.7 °F 96% 30.12 in 2.0 mi Calm Calm - N/A   Scattered Clouds
2:55 AM 32.0 °F - 31.1 °F 96% 30.12 in 3.0 mi Calm Calm - N/A   Scattered Clouds
3:15 AM 32.2 °F - 31.6 °F 98% 30.12 in 2.0 mi Calm Calm - N/A   Overcast
3:35 AM 32.7 °F - 32.0 °F 97% 30.12 in 3.0 mi Calm Calm - N/A   Scattered Clouds
3:55 AM 32.9 °F - 32.0 °F 96% 30.11 in 3.0 mi Calm Calm - N/A   Clear
4:15 AM 33.1 °F - 32.0 °F 96% 30.11 in 1.5 mi Calm Calm - N/A   Mist
4:35 AM 31.8 °F - 30.7 °F 96% 30.11 in 0.5 mi Calm Calm - N/A Fog Fog
4:55 AM 32.0 °F - 31.1 °F 96% 30.11 in 1.8 mi Calm Calm - N/A   Mist
5:15 AM 31.8 °F - 30.6 °F 95% 30.11 in 2.0 mi Calm Calm - N/A   Clear
5:35 AM 32.0 °F - 31.3 °F 97% 30.11 in 3.0 mi Calm Calm - N/A   Clear
5:55 AM 32.0 °F - 31.1 °F 96% 30.11 in 3.0 mi Calm Calm - N/A   Clear
6:15 AM 32.0 °F - 31.1 °F 96% 30.11 in 3.0 mi Calm Calm - N/A   Mostly Cloudy
6:35 AM 32.9 °F - 32.0 °F 96% 30.10 in 3.0 mi Calm Calm - N/A   Overcast
6:55 AM 33.8 °F - 32.5 °F 95% 30.11 in 2.5 mi Calm Calm - N/A   Overcast
7:15 AM 34.5 °F - 33.3 °F 95% 30.11 in 3.0 mi Calm Calm - N/A   Overcast
7:35 AM 35.1 °F - 33.6 °F 94% 30.11 in 4.0 mi Calm Calm - N/A   Overcast
7:55 AM 36.3 °F - 34.0 °F 91% 30.11 in 4.0 mi Calm Calm - N/A   Overcast
8:15 AM 35.4 °F - 33.6 °F 93% 30.11 in 4.0 mi Calm Calm - N/A   Overcast
8:35 AM 35.8 °F - 34.0 °F 93% 30.11 in 3.0 mi Calm Calm - N/A   Overcast
8:55 AM 36.9 °F 34.3 °F 34.7 °F 92% 30.11 in 4.0 mi ENE 3.5 mph - N/A   Overcast
9:15 AM 37.0 °F - 34.7 °F 91% 30.11 in 4.0 mi Calm Calm - N/A   Overcast
9:35 AM 38.5 °F - 35.2 °F 88% 30.12 in 5.0 mi Calm Calm - N/A   Overcast
9:55 AM 39.6 °F - 35.4 °F 85% 30.12 in 5.0 mi Calm Calm - N/A   Overcast
10:15 AM 39.9 °F - 35.6 °F 85% 30.12 in 5.0 mi Calm Calm - N/A   Overcast
10:35 AM 40.5 °F - 36.0 °F 84% 30.13 in 7.0 mi Calm Calm - N/A   Overcast
10:55 AM 42.1 °F - 36.7 °F 81% 30.12 in 7.0 mi Calm Calm - N/A   Overcast
11:15 AM 46.0 °F - 38.1 °F 74% 30.11 in 7.0 mi Calm Calm - N/A   Overcast
11:35 AM 47.3 °F - 37.9 °F 70% 30.11 in 7.0 mi Calm Calm - N/A   Overcast
11:55 AM 48.6 °F - 38.3 °F 68% 30.10 in 7.0 mi Calm Calm - N/A   Overcast
12:15 PM 49.1 °F - 38.1 °F 66% 30.09 in 10.0 mi Calm Calm - N/A   Overcast
12:35 PM 50.0 °F - 38.5 °F 65% 30.08 in 10.0 mi Calm Calm - N/A   Overcast
12:55 PM 50.5 °F - 38.8 °F 64% 30.08 in 10.0 mi Calm Calm - N/A   Overcast
1:15 PM 50.4 °F - 38.8 °F 65% 30.07 in 10.0 mi Calm Calm - N/A   Overcast
1:34 PM 50.9 °F - 39.2 °F 64% 30.08 in 7.0 mi Calm Calm - N/A   Overcast
1:55 PM 51.4 °F - 39.6 °F 64% 30.07 in 7.0 mi Calm Calm - N/A   Overcast
2:15 PM 51.3 °F - 39.6 °F 64% 30.07 in 10.0 mi Calm Calm - N/A   Overcast
2:34 PM 50.7 °F - 40.3 °F 67% 30.07 in 7.0 mi Calm Calm - N/A   Overcast
2:55 PM 50.0 °F - 40.1 °F 69% 30.08 in 7.0 mi NNW 3.5 mph - N/A   Overcast
3:15 PM 49.3 °F - 40.3 °F 71% 30.08 in 7.0 mi Calm Calm - N/A   Overcast
3:35 PM 49.1 °F - 40.3 °F 72% 30.08 in 7.0 mi Calm Calm - N/A   Overcast
3:55 PM 49.1 °F - 40.3 °F 72% 30.09 in 7.0 mi Calm Calm - N/A   Overcast
4:15 PM 48.6 °F - 40.5 °F 74% 30.10 in 7.0 mi Calm Calm - N/A   Overcast
4:35 PM 48.6 °F - 40.3 °F 73% 30.10 in 7.0 mi Calm Calm - N/A   Overcast
4:55 PM 48.4 °F - 40.6 °F 75% 30.10 in 7.0 mi Calm Calm - N/A   Overcast
5:15 PM 48.2 °F - 40.5 °F 75% 30.10 in 7.0 mi Calm Calm - N/A   Overcast
5:35 PM 47.5 °F - 40.6 °F 77% 30.10 in 7.0 mi Calm Calm - N/A   Overcast
5:55 PM 48.0 °F - 40.3 °F 75% 30.11 in 7.0 mi Calm Calm - N/A   Overcast
6:15 PM 49.1 °F - 40.5 °F 72% 30.11 in 7.0 mi Calm Calm - N/A   Overcast
6:35 PM 48.4 °F - 40.3 °F 74% 30.12 in 7.0 mi Calm Calm - N/A   Overcast
6:55 PM 45.7 °F - 40.3 °F 81% 30.12 in 7.0 mi Calm Calm - N/A   Overcast
7:15 PM 45.9 °F - 40.3 °F 81% 30.13 in 7.0 mi Calm Calm - N/A   Overcast
7:35 PM 46.2 °F - 40.5 °F 80% 30.13 in 7.0 mi Calm Calm - N/A   Overcast
7:55 PM 45.5 °F - 40.1 °F 81% 30.13 in 7.0 mi Calm Calm - N/A   Overcast
8:15 PM 45.1 °F - 40.1 °F 82% 30.13 in 7.0 mi Calm Calm - N/A   Overcast
8:35 PM 46.0 °F - 40.1 °F 80% 30.14 in 7.0 mi Calm Calm - N/A   Overcast
8:55 PM 46.9 °F - 40.1 °F 77% 30.14 in 7.0 mi Calm Calm - N/A   Overcast
9:15 PM 45.0 °F - 40.1 °F 83% 30.15 in 7.0 mi Calm Calm - N/A   Overcast
9:35 PM 45.5 °F - 40.5 °F 83% 30.15 in 7.0 mi Calm Calm - N/A   Overcast
9:55 PM 44.8 °F - 40.3 °F 84% 30.14 in 7.0 mi Calm Calm - N/A   Overcast
10:16 PM 46.6 °F - 40.8 °F 80% 30.15 in 7.0 mi Calm Calm - N/A   Overcast
10:35 PM 45.5 °F - 40.6 °F 83% 30.15 in 7.0 mi Calm Calm - N/A   Overcast
10:55 PM 45.9 °F - 40.5 °F 81% 30.15 in 7.0 mi Calm Calm - N/A   Overcast
11:15 PM 44.6 °F - 40.3 °F 85% 30.15 in 7.0 mi Calm Calm - N/A   Overcast
11:35 PM 44.6 °F - 40.1 °F 84% 30.15 in 7.0 mi Calm Calm - N/A   Overcast
11:55 PM 44.6 °F - 40.3 °F 85% 30.15 in 7.0 mi Calm Calm - N/A   Overcast